Voltar ao catálogo

RCM 2

AtivoCiênciaSSO
NORAD 44324·PAYLOAD·🇨🇦 Canada

Lançado Jun 12, 2019 de Vandenberg Space Force Base

Loading…

Próximas Passagens (próximas 24 horas)

TLE

AtualizadoSource: Space-Track

Época: Sep 14, 2026, 14:37 UTC

1 44324U 19033C   26257.60963831  .00000393  00000-0  43614-4 0  9998
2 44324  97.7600 263.8372 0001526  90.0792 270.0602 14.92589730395428

Acompanhe RCM 2 em tempo real com AllMySat

Download on the App Store